Montreal/Mirabel, Ontario

2:13 AM EST on December 08, 2016 (GMT -0500)
Montreal International (Mirabel)

Weather History for CYMX - November, 2013

Change the Weather History Date:

Wednesday, November 20, 2013

  Actual Average Record
Temperature  
Mean Temperature 24 °F -  
Max Temperature 33 °F 37 °F 51 °F (1999)
Min Temperature 15 °F 24 °F 15 °F (2013)
Degree Days  
Heating Degree Days 41    
Moisture  
Dew Point 14 °F    
Average Humidity 65    
Maximum Humidity 86    
Minimum Humidity 44    
Precipitation  
Precipitation 0.00 in - - ()
Sea Level Pressure  
Sea Level Pressure 30.60 in    
Wind  
Wind Speed 3 mph ()    
Max Wind Speed 7 mph    
Max Gust Speed -    
Averages and records for this station are not official NWS values.
T = Trace of Precipitation, MM = Missing Value Source: Averaged Metar Reports

Daily Weather History Graph

Daily Weather History Graph

Search for Another Location

Airport or City:

Trip Planner

Search our weather history database for the weather conditions in past years. The results will help you decide how hot, cold, wet, or windy it might be!

Date:

Astronomy

Nov. 20, 2013 Rise Set
Actual Time 7:02 AM EST 4:20 PM EST
Civil Twilight 6:30 AM EST 4:53 PM EST
Nautical Twilight 5:53 AM EST 5:29 PM EST
Astronomical Twilight 5:18 AM EST 6:04 PM EST
Moon 7:01 PM EST (11/20) 9:26 AM EST (11/20)
Length of Visible Light 10h 23m
Length of Day
9h 17m
Waning Gibbous, 91% of the Moon is Illuminated
Nov 20
Waning Gibbous
Nov 25
Last Quarter
Dec 2
New
Dec 9
First Quarter
Dec 17
Full

Hourly Weather History & Observations

Time (EST) Temp. Windchill Dew Point Humidity Pressure Visibility Wind Dir Wind Speed Gust Speed Precip Events Conditions
12:00 AM 24.8 °F 20.5 °F 14.0 °F 64% 30.43 in 25.0 mi West 3.5 mph - N/A   Partly Cloudy
1:00 AM 23.0 °F 18.4 °F 14.0 °F 68% 30.45 in 25.0 mi West 3.5 mph - N/A   Clear
2:00 AM 23.0 °F 18.4 °F 12.2 °F 63% 30.47 in 25.0 mi WNW 3.5 mph - N/A   Clear
3:00 AM 21.2 °F 16.4 °F 12.2 °F 68% 30.50 in 25.0 mi West 3.5 mph - N/A   Clear
4:00 AM 21.2 °F 16.4 °F 14.0 °F 74% 30.53 in 25.0 mi WSW 3.5 mph - N/A   Clear
5:00 AM 21.2 °F 12.6 °F 12.2 °F 68% 30.56 in 25.0 mi WSW 6.9 mph - N/A   Clear
6:00 AM 17.6 °F - 12.2 °F 79% 30.58 in 25.0 mi Variable 2.3 mph - N/A   Clear
7:00 AM 15.8 °F 10.2 °F 12.2 °F 86% 30.61 in 45.0 mi West 3.5 mph - N/A   Scattered Clouds
8:00 AM 19.4 °F 12.8 °F 15.8 °F 86% 30.63 in 25.0 mi West 4.6 mph - N/A   Partly Cloudy
9:00 AM 24.8 °F 20.5 °F 17.6 °F 74% 30.65 in 25.0 mi West 3.5 mph - N/A   Partly Cloudy
10:00 AM 28.4 °F - 14.0 °F 55% 30.67 in 45.0 mi West 2.3 mph - N/A   Scattered Clouds
11:00 AM 30.2 °F 26.7 °F 14.0 °F 51% 30.66 in 45.0 mi NW 3.5 mph - N/A   Partly Cloudy
12:00 PM 32.0 °F 27.5 °F 14.0 °F 48% 30.64 in 45.0 mi West 4.6 mph - N/A   Partly Cloudy
1:00 PM 32.0 °F - 14.0 °F 48% 30.63 in 45.0 mi Variable 2.3 mph - N/A   Partly Cloudy
2:00 PM 32.0 °F 28.7 °F 14.0 °F 48% 30.62 in 45.0 mi SSW 3.5 mph - N/A   Partly Cloudy
3:00 PM 33.8 °F 29.6 °F 14.0 °F 44% 30.62 in 45.0 mi WSW 4.6 mph - N/A   Partly Cloudy
4:00 PM 32.0 °F 28.7 °F 14.0 °F 48% 30.63 in 45.0 mi SW 3.5 mph - N/A   Partly Cloudy
5:00 PM 28.4 °F 22.2 °F 14.0 °F 55% 30.64 in 25.0 mi SW 5.8 mph - N/A   Partly Cloudy
6:00 PM 26.6 °F - 14.0 °F 59% 30.65 in 25.0 mi Calm Calm - N/A   Partly Cloudy
7:00 PM 26.6 °F - 14.0 °F 59% 30.66 in 25.0 mi Calm Calm - N/A   Clear
8:00 PM 23.0 °F 18.4 °F 15.8 °F 74% 30.66 in 25.0 mi South 3.5 mph - N/A   Partly Cloudy
9:00 PM 23.0 °F - 17.6 °F 80% 30.66 in 25.0 mi Calm Calm - N/A   Partly Cloudy
10:00 PM 21.2 °F - 15.8 °F 80% 30.66 in 25.0 mi Calm Calm - N/A   Partly Cloudy
11:00 PM 19.4 °F 12.8 °F 14.0 °F 80% 30.65 in 25.0 mi NE 4.6 mph - N/A   Partly Cloudy